RADCAL 1 22698U 93041A 09184.72909553 .00000075 00000-0 26902-4 0 3737 2 22698 089.5322 026.3123 0087299 263.6911 095.4332 14.22817676831628 STRV 1A 1 23125U 94034B 09182.76104080 .00001065 00000-0 27252-3 0 4627 2 23125 007.2856 077.3959 6838928 308.9829 007.8894 02.85074799139860 STRV 1B 1 23126U 94034C 09185.13200222 .00005951 00000-0 70207-3 0 4678 2 23126 007.4622 023.7415 6804062 056.7360 351.0592 02.92256084142147 HELIOS 1A 1 23605U 95033A 09185.40555387 .00000005 00000-0 99686-5 0 2773 2 23605 098.0816 121.7753 0001999 031.2110 328.9186 14.63842682747696 REX 2 1 23814U 96014A 09184.88732570 +.00000043 +00000-0 +14041-4 0 07203 2 23814 090.1615 272.5889 0020015 258.5208 101.3734 14.23867705691920 COSMOS 2346 1 24953U 97052A 09184.86165749 +.00000034 +00000-0 +17247-4 0 05329 2 24953 082.9200 303.2297 0041397 084.1722 276.4152 13.79433991592923 ARGOS 1 25634U 99008A 09184.67990247 -.00000235 +00000-0 -90563-4 0 07595 2 25634 099.0106 222.0163 0009473 259.9841 100.0263 14.18908692536389 HELIOS 1B 1 25977U 99064A 09184.95462430 +.00000763 +00000-0 +11421-3 0 04110 2 25977 098.3416 186.2983 0000413 256.5708 103.5486 14.77701718514405 MTI 1 26102U 00014A 09184.97332572 -.00000010 +00000-0 +29192-5 0 07635 2 26102 097.2209 348.2409 0021311 055.3529 090.6219 15.11761456511932 STRV 1C 1 26610U 00072C 09182.73192024 .00000392 00000-0 97220-2 0 9516 2 26610 006.6712 279.5217 7323432 076.2459 349.3318 02.03456583 64129 OFEQ 5 1 27434U 02025A 09185.45151123 .00000820 00000-0 24122-4 0 3588 2 27434 143.4673 030.7083 0025207 172.1259 268.2766 15.05642065395899 HELIOS-2A 1 28492U 04049A 09185.43881409 .00000031 00000-0 14832-4 0 911 2 28492 098.0850 121.9576 0001118 055.2011 304.9280 14.63867668242664 ESSAIM-1 1 28494U 04049C 09185.39978206 .00000035 00000-0 14271-4 0 1620 2 28494 098.2532 144.6006 0003075 157.3332 202.8010 14.70162813243610 ESSAIM-2 1 28495U 04049D 09185.39932647 .00000012 00000-0 10427-4 0 1871 2 28495 098.2541 144.7079 0004079 157.9852 202.1528 14.70162290243616 ESSAIM-3 1 28496U 04049E 09185.39991032 -.00000099 00000-0 -78574-5 0 1140 2 28496 098.2672 149.0231 0008628 183.9941 176.1204 14.70163266243796 ESSAIM-4 1 28497U 04049F 09185.39944356 -.00000105 00000-0 -89148-5 0 1662 2 28497 098.2674 149.0636 0011890 182.3336 177.7823 14.70163253243794 MIDSTAR 1 1 30773U 07006B 09184.69122183 -.00000304 00000-0 00000+0 0 6610 2 30773 046.0255 269.7601 0010612 269.8680 090.0996 15.23745800129251 CFESAT 1 30777U 07006F 09184.91523184 +.00000222 +00000-0 +19360-4 0 06123 2 30777 035.4342 001.8260 0003494 009.9999 350.0786 15.02766654127572 NFIRE 1 31140U 07014A 09184.93082786 +.00003389 +00000-0 +46979-4 0 08739 2 31140 048.2327 116.9851 0051901 105.7816 254.8861 15.58680726124843 OFEQ 7 1 31601U 07025A 09184.91202767 +.00001359 +00000-0 +38717-4 0 03421 2 31601 141.7461 201.8584 0073099 303.0366 135.1599 15.19625821114979 SAR LUPE 2 1 31797U 07030A 09184.88744631 +.00000510 +00000-0 +22864-4 0 02456 2 31797 098.1906 355.7673 0014629 148.7108 346.5140 15.26461915111690 SAR LUPE 3 1 32283U 07053A 09184.90059028 +.00000546 +00000-0 +24260-4 0 08776 2 32283 098.1218 057.3717 0008887 263.3505 274.2390 15.26403608093200 SAR LUPE 4 1 32750U 08014A 09184.88112472 +.00000482 +00000-0 +21778-4 0 04195 2 32750 098.1280 287.0346 0021728 016.4959 123.4378 15.26403115070655 SAR LUPE 5 1 33244U 08036A 09184.93239593 +.00000621 +00000-0 +27025-4 0 00628 2 33244 098.1167 055.8347 0022719 060.5738 357.2479 15.26412097052902